Time,TemperatureF,DewpointF,PressureIn,WindDirection,WindDirectionDegrees,WindSpeedMPH,WindSpeedGustMPH,Humidity,HourlyPrecipIn,Conditions,Clouds,dailyrainin,SoftwareType,DateUTC
2013-11-30 00:00:00,18.8,8.3,30.76,NNW,343,0.0,0.0,63,0.00,,---,0.00,VWS V14.01,2013-11-30 05:00:00,
2013-11-30 00:05:00,18.6,8.5,30.76,NNW,343,0.0,0.0,64,0.00,,---,0.00,VWS V14.01,2013-11-30 05:05:00,
2013-11-30 00:10:00,18.3,8.2,30.76,NNW,343,0.0,0.0,64,0.00,,---,0.00,VWS V14.01,2013-11-30 05:10:00,
2013-11-30 00:15:00,18.1,8.7,30.76,NNW,343,0.0,0.0,66,0.00,,---,0.00,VWS V14.01,2013-11-30 05:15:00,
2013-11-30 00:20:00,17.9,8.5,30.76,NNW,343,0.0,0.0,66,0.00,,---,0.00,VWS V14.01,2013-11-30 05:20:00,
2013-11-30 00:25:00,17.8,8.4,30.76,NNW,343,0.0,0.0,66,0.00,,---,0.00,VWS V14.01,2013-11-30 05:25:00,
2013-11-30 00:30:00,17.6,8.5,30.76,NNW,343,0.0,1.0,67,0.00,,---,0.00,VWS V14.01,2013-11-30 05:30:00,
2013-11-30 00:35:00,17.5,8.8,30.76,NNW,343,0.0,0.0,68,0.00,,---,0.00,VWS V14.01,2013-11-30 05:35:00,
2013-11-30 00:40:00,17.4,9.0,30.75,NNW,343,0.0,0.0,69,0.00,,---,0.00,VWS V14.01,2013-11-30 05:40:00,
2013-11-30 00:45:00,17.3,9.2,30.75,NNW,343,0.0,0.0,70,0.00,,---,0.00,VWS V14.01,2013-11-30 05:45:00,
2013-11-30 00:50:00,17.1,9.0,30.75,NNW,343,0.0,0.0,70,0.00,,---,0.00,VWS V14.01,2013-11-30 05:50:00,
2013-11-30 00:55:00,17.1,9.0,30.76,NNW,343,0.0,0.0,70,0.00,,---,0.00,VWS V14.01,2013-11-30 05:55:00,
2013-11-30 01:00:00,17.1,9.3,30.76,NNW,343,0.0,0.0,71,0.00,,---,0.00,VWS V14.01,2013-11-30 06:00:00,
2013-11-30 01:05:00,17.0,9.2,30.76,NNW,343,0.0,0.0,71,0.00,,---,0.00,VWS V14.01,2013-11-30 06:05:00,
2013-11-30 01:10:00,16.8,9.0,30.76,NNW,343,0.0,0.0,71,0.00,,---,0.00,VWS V14.01,2013-11-30 06:10:00,
2013-11-30 01:15:00,16.8,9.0,30.76,NNW,343,0.0,0.0,71,0.00,,---,0.00,VWS V14.01,2013-11-30 06:15:00,
2013-11-30 01:20:00,16.7,8.9,30.76,NNW,343,0.0,0.0,71,0.00,,---,0.00,VWS V14.01,2013-11-30 06:20:00,
2013-11-30 01:25:00,16.7,8.9,30.76,NNW,343,0.0,0.0,71,0.00,,---,0.00,VWS V14.01,2013-11-30 06:25:00,
2013-11-30 01:30:00,16.6,8.9,30.76,NNW,343,0.0,0.0,71,0.00,,---,0.00,VWS V14.01,2013-11-30 06:30:00,
2013-11-30 01:35:00,16.6,8.5,30.77,NE,52,0.0,2.0,70,0.00,,---,0.00,VWS V14.01,2013-11-30 06:35:00,
2013-11-30 01:40:00,16.5,8.8,30.77,NE,52,0.0,0.0,71,0.00,,---,0.00,VWS V14.01,2013-11-30 06:40:00,
2013-11-30 01:45:00,16.5,8.8,30.77,NE,52,0.0,0.0,71,0.00,,---,0.00,VWS V14.01,2013-11-30 06:45:00,
2013-11-30 01:50:00,16.3,8.6,30.77,NE,52,0.0,1.0,71,0.00,,---,0.00,VWS V14.01,2013-11-30 06:50:00,
2013-11-30 01:55:00,16.3,8.9,30.77,NE,52,0.0,0.0,72,0.00,,---,0.00,VWS V14.01,2013-11-30 06:55:00,
2013-11-30 02:05:00,16.1,8.7,30.77,NE,52,0.0,0.0,72,0.00,,---,0.00,VWS V14.01,2013-11-30 07:05:00,
2013-11-30 02:10:00,16.0,8.6,30.78,NE,52,0.0,0.0,72,0.00,,---,0.00,VWS V14.01,2013-11-30 07:10:00,
2013-11-30 02:15:00,15.9,8.5,30.78,NE,52,0.0,0.0,72,0.00,,---,0.00,VWS V14.01,2013-11-30 07:15:00,
2013-11-30 02:20:00,15.7,8.3,30.78,NE,52,0.0,0.0,72,0.00,,---,0.00,VWS V14.01,2013-11-30 07:20:00,
2013-11-30 02:25:00,15.6,8.5,30.78,NE,52,0.0,0.0,73,0.00,,---,0.00,VWS V14.01,2013-11-30 07:25:00,
2013-11-30 02:30:00,15.6,8.8,30.77,NE,52,0.0,0.0,74,0.00,,---,0.00,VWS V14.01,2013-11-30 07:30:00,
2013-11-30 02:35:00,15.5,9.0,30.77,NE,52,0.0,0.0,75,0.00,,---,0.00,VWS V14.01,2013-11-30 07:35:00,
2013-11-30 02:40:00,15.5,9.0,30.77,NE,52,0.0,0.0,75,0.00,,---,0.00,VWS V14.01,2013-11-30 07:40:00,
2013-11-30 02:45:00,15.5,9.3,30.77,NE,52,0.0,0.0,76,0.00,,---,0.00,VWS V14.01,2013-11-30 07:45:00,
2013-11-30 02:50:00,15.5,9.3,30.77,NE,52,0.0,0.0,76,0.00,,---,0.00,VWS V14.01,2013-11-30 07:50:00,
2013-11-30 02:55:00,15.5,9.3,30.78,NE,52,0.0,0.0,76,0.00,,---,0.00,VWS V14.01,2013-11-30 07:55:00,
2013-11-30 03:00:00,15.4,9.2,30.78,NE,52,0.0,0.0,76,0.00,,---,0.00,VWS V14.01,2013-11-30 08:00:00,
2013-11-30 03:05:00,15.5,9.3,30.78,NE,52,0.0,0.0,76,0.00,,---,0.00,VWS V14.01,2013-11-30 08:05:00,
2013-11-30 03:10:00,15.7,9.5,30.78,NE,52,0.0,0.0,76,0.00,,---,0.00,VWS V14.01,2013-11-30 08:10:00,
2013-11-30 03:15:00,15.8,9.3,30.78,NE,52,0.0,0.0,75,0.00,,---,0.00,VWS V14.01,2013-11-30 08:15:00,
2013-11-30 03:20:00,15.8,9.3,30.78,NE,52,0.0,1.0,75,0.00,,---,0.00,VWS V14.01,2013-11-30 08:20:00,
2013-11-30 03:25:00,15.9,9.4,30.78,NE,52,0.0,0.0,75,0.00,,---,0.00,VWS V14.01,2013-11-30 08:25:00,
2013-11-30 03:30:00,15.9,9.4,30.78,NE,52,0.0,0.0,75,0.00,,---,0.00,VWS V14.01,2013-11-30 08:30:00,
2013-11-30 03:35:00,15.9,9.4,30.78,NE,52,0.0,1.0,75,0.00,,---,0.00,VWS V14.01,2013-11-30 08:35:00,
2013-11-30 03:40:00,15.8,9.3,30.78,NE,52,0.0,1.0,75,0.00,,---,0.00,VWS V14.01,2013-11-30 08:40:00,
2013-11-30 03:45:00,15.8,9.3,30.78,NE,52,0.0,1.0,75,0.00,,---,0.00,VWS V14.01,2013-11-30 08:45:00,
2013-11-30 03:50:00,15.8,9.3,30.78,NE,52,0.0,1.0,75,0.00,,---,0.00,VWS V14.01,2013-11-30 08:50:00,
2013-11-30 03:55:00,15.8,9.3,30.78,NE,52,0.0,0.0,75,0.00,,---,0.00,VWS V14.01,2013-11-30 08:55:00,
2013-11-30 04:00:00,15.8,9.3,30.78,NE,52,0.0,1.0,75,0.00,,---,0.00,VWS V14.01,2013-11-30 09:00:00,
2013-11-30 04:05:00,15.7,9.2,30.78,NE,52,0.0,2.0,75,0.00,,---,0.00,VWS V14.01,2013-11-30 09:05:00,
2013-11-30 04:10:00,15.8,9.3,30.78,NE,52,0.0,2.0,75,0.00,,---,0.00,VWS V14.01,2013-11-30 09:10:00,
2013-11-30 04:15:00,15.8,9.3,30.78,NE,52,0.0,2.0,75,0.00,,---,0.00,VWS V14.01,2013-11-30 09:15:00,
2013-11-30 04:20:00,15.7,9.2,30.78,NE,52,0.0,1.0,75,0.00,,---,0.00,VWS V14.01,2013-11-30 09:20:00,
2013-11-30 04:25:00,15.7,9.2,30.78,WNW,292,0.0,3.0,75,0.00,,---,0.00,VWS V14.01,2013-11-30 09:25:00,
2013-11-30 04:30:00,15.7,9.2,30.78,WNW,292,0.0,0.0,75,0.00,,---,0.00,VWS V14.01,2013-11-30 09:30:00,
2013-11-30 04:35:00,15.6,9.4,30.79,WNW,292,0.0,2.0,76,0.00,,---,0.00,VWS V14.01,2013-11-30 09:35:00,
2013-11-30 04:40:00,15.5,9.3,30.79,WNW,292,0.0,2.0,76,0.00,,---,0.00,VWS V14.01,2013-11-30 09:40:00,
2013-11-30 04:45:00,15.5,9.3,30.79,WNW,293,0.0,2.0,76,0.00,,---,0.00,VWS V14.01,2013-11-30 09:45:00,
2013-11-30 04:50:00,15.5,9.3,30.79,WNW,293,0.0,1.0,76,0.00,,---,0.00,VWS V14.01,2013-11-30 09:50:00,
2013-11-30 04:55:00,15.4,9.2,30.79,WNW,293,0.0,2.0,76,0.00,,---,0.00,VWS V14.01,2013-11-30 09:55:00,
2013-11-30 05:00:00,15.4,9.2,30.79,WNW,293,0.0,1.0,76,0.00,,---,0.00,VWS V14.01,2013-11-30 10:00:00,
2013-11-30 05:05:00,15.3,9.1,30.79,WNW,293,0.0,1.0,76,0.00,,---,0.00,VWS V14.01,2013-11-30 10:05:00,
2013-11-30 05:15:00,15.1,9.2,30.79,WNW,293,0.0,0.0,77,0.00,,---,0.00,VWS V14.01,2013-11-30 10:15:00,
2013-11-30 05:20:00,14.9,9.0,30.79,WNW,293,0.0,0.0,77,0.00,,---,0.00,VWS V14.01,2013-11-30 10:20:00,
2013-11-30 05:25:00,14.6,9.0,30.79,WNW,293,0.0,0.0,78,0.00,,---,0.00,VWS V14.01,2013-11-30 10:25:00,
2013-11-30 05:30:00,14.5,8.9,30.79,WNW,293,0.0,0.0,78,0.00,,---,0.00,VWS V14.01,2013-11-30 10:30:00,
2013-11-30 05:35:00,14.6,9.3,30.79,WNW,293,0.0,1.0,79,0.00,,---,0.00,VWS V14.01,2013-11-30 10:35:00,
2013-11-30 05:40:00,14.6,9.0,30.80,WNW,293,0.0,1.0,78,0.00,,---,0.00,VWS V14.01,2013-11-30 10:40:00,
2013-11-30 05:45:00,14.7,9.1,30.79,WNW,293,0.0,0.0,78,0.00,,---,0.00,VWS V14.01,2013-11-30 10:45:00,
2013-11-30 05:50:00,14.6,9.0,30.80,WNW,293,0.0,1.0,78,0.00,,---,0.00,VWS V14.01,2013-11-30 10:50:00,
2013-11-30 05:55:00,14.5,9.2,30.80,WNW,293,0.0,3.0,79,0.00,,---,0.00,VWS V14.01,2013-11-30 10:55:00,
2013-11-30 06:00:00,14.6,9.3,30.80,WNW,293,0.0,0.0,79,0.00,,---,0.00,VWS V14.01,2013-11-30 11:00:00,
2013-11-30 06:05:00,14.6,9.3,30.80,WNW,293,0.0,0.0,79,0.00,,---,0.00,VWS V14.01,2013-11-30 11:05:00,
2013-11-30 06:10:00,14.5,9.2,30.79,WNW,293,0.0,1.0,79,0.00,,---,0.00,VWS V14.01,2013-11-30 11:10:00,
2013-11-30 06:15:00,14.5,9.2,30.79,WNW,293,0.0,2.0,79,0.00,,---,0.00,VWS V14.01,2013-11-30 11:15:00,
2013-11-30 06:20:00,14.5,9.2,30.79,WNW,293,0.0,0.0,79,0.00,,---,0.00,VWS V14.01,2013-11-30 11:20:00,
2013-11-30 06:25:00,14.4,9.1,30.80,WNW,293,0.0,0.0,79,0.00,,---,0.00,VWS V14.01,2013-11-30 11:25:00,
2013-11-30 06:30:00,14.2,8.9,30.80,WNW,293,0.0,0.0,79,0.00,,---,0.00,VWS V14.01,2013-11-30 11:30:00,
2013-11-30 06:35:00,14.1,9.1,30.80,WNW,293,0.0,0.0,80,0.00,,---,0.00,VWS V14.01,2013-11-30 11:35:00,
2013-11-30 06:40:00,13.9,8.9,30.80,WNW,293,0.0,0.0,80,0.00,,---,0.00,VWS V14.01,2013-11-30 11:40:00,
2013-11-30 06:45:00,13.9,9.2,30.80,WNW,293,0.0,0.0,81,0.00,,---,0.00,VWS V14.01,2013-11-30 11:45:00,
2013-11-30 06:50:00,13.9,9.2,30.80,WNW,293,0.0,0.0,81,0.00,,---,0.00,VWS V14.01,2013-11-30 11:50:00,
2013-11-30 06:55:00,14.0,11.4,30.80,WNW,293,0.0,0.0,89,0.00,,---,0.00,VWS V14.01,2013-11-30 11:55:00,
2013-11-30 07:00:00,14.1,9.4,30.80,WNW,293,0.0,1.0,81,0.00,,---,0.00,VWS V14.01,2013-11-30 12:00:00,
2013-11-30 07:05:00,14.1,9.1,30.80,WNW,293,0.0,0.0,80,0.00,,---,0.00,VWS V14.01,2013-11-30 12:05:00,
2013-11-30 07:15:00,14.2,9.2,30.81,WNW,293,0.0,1.0,80,0.00,,---,0.00,VWS V14.01,2013-11-30 12:15:00,
2013-11-30 07:20:00,14.3,9.3,30.81,WNW,293,0.0,1.0,80,0.00,,---,0.00,VWS V14.01,2013-11-30 12:20:00,
2013-11-30 07:25:00,14.5,9.7,30.81,WNW,293,0.0,1.0,81,0.00,,---,0.00,VWS V14.01,2013-11-30 12:25:00,
2013-11-30 07:30:00,14.8,9.8,30.81,WNW,294,0.0,2.0,80,0.00,,---,0.00,VWS V14.01,2013-11-30 12:30:00,
2013-11-30 07:35:00,15.0,9.7,30.81,WNW,294,0.0,2.0,79,0.00,,---,0.00,VWS V14.01,2013-11-30 12:35:00,
2013-11-30 07:40:00,15.3,9.7,30.81,WNW,293,0.0,1.0,78,0.00,,---,0.00,VWS V14.01,2013-11-30 12:40:00,
2013-11-30 07:45:00,15.6,10.0,30.81,NW,313,1.0,2.0,78,0.00,,---,0.00,VWS V14.01,2013-11-30 12:45:00,
2013-11-30 07:50:00,16.1,10.2,30.81,NNE,22,0.0,3.0,77,0.00,,---,0.00,VWS V14.01,2013-11-30 12:50:00,
2013-11-30 07:55:00,16.4,10.2,30.81,NNE,22,2.0,2.0,76,0.00,,---,0.00,VWS V14.01,2013-11-30 12:55:00,
2013-11-30 08:00:00,16.8,10.3,30.81,NNE,19,2.0,3.0,75,0.00,,---,0.00,VWS V14.01,2013-11-30 13:00:00,
2013-11-30 08:05:00,17.0,10.2,30.81,NNE,25,1.0,2.0,74,0.00,,---,0.00,VWS V14.01,2013-11-30 13:05:00,
2013-11-30 08:10:00,17.3,10.4,30.81,NNE,23,2.0,4.0,74,0.00,,---,0.00,VWS V14.01,2013-11-30 13:10:00,
2013-11-30 08:15:00,17.5,10.3,30.81,North,8,2.0,5.0,73,0.00,,---,0.00,VWS V14.01,2013-11-30 13:15:00,
2013-11-30 08:20:00,17.9,10.4,30.81,NNE,30,0.0,5.0,72,0.00,,---,0.00,VWS V14.01,2013-11-30 13:20:00,
2013-11-30 08:25:00,18.2,10.7,30.81,North,358,2.0,5.0,72,0.00,,---,0.00,VWS V14.01,2013-11-30 13:25:00,
2013-11-30 08:30:00,18.4,10.6,30.81,NNE,30,0.0,5.0,71,0.00,,---,0.00,VWS V14.01,2013-11-30 13:30:00,
2013-11-30 08:35:00,18.7,10.6,30.81,NE,50,0.0,4.0,70,0.00,,---,0.00,VWS V14.01,2013-11-30 13:35:00,
2013-11-30 08:40:00,18.9,10.8,30.81,NNE,23,2.0,4.0,70,0.00,,---,0.00,VWS V14.01,2013-11-30 13:40:00,
2013-11-30 08:45:00,19.3,10.8,30.81,NNE,30,4.0,5.0,69,0.00,,---,0.00,VWS V14.01,2013-11-30 13:45:00,
2013-11-30 08:50:00,19.7,10.9,30.81,NW,324,1.0,4.0,68,0.00,,---,0.00,VWS V14.01,2013-11-30 13:50:00,
2013-11-30 08:55:00,20.0,10.8,30.81,NNE,17,0.0,4.0,67,0.00,,---,0.00,VWS V14.01,2013-11-30 13:55:00,
2013-11-30 09:00:00,20.4,10.9,30.81,ENE,58,2.0,3.0,66,0.00,,---,0.00,VWS V14.01,2013-11-30 14:00:00,
2013-11-30 09:05:00,20.7,10.8,30.81,NNE,30,0.0,6.0,65,0.00,,---,0.00,VWS V14.01,2013-11-30 14:05:00,
2013-11-30 09:10:00,21.1,11.2,30.81,North,360,0.0,4.0,65,0.00,,---,0.00,VWS V14.01,2013-11-30 14:10:00,
2013-11-30 09:15:00,21.5,11.2,30.81,NNE,30,4.0,4.0,64,0.00,,---,0.00,VWS V14.01,2013-11-30 14:15:00,
2013-11-30 09:20:00,21.7,11.4,30.81,NE,44,0.0,5.0,64,0.00,,---,0.00,VWS V14.01,2013-11-30 14:20:00,
2013-11-30 09:25:00,22.0,11.4,30.81,North,352,1.0,5.0,63,0.00,,---,0.00,VWS V14.01,2013-11-30 14:25:00,
2013-11-30 09:30:00,22.2,11.9,30.81,NNW,337,3.0,6.0,64,0.00,,---,0.00,VWS V14.01,2013-11-30 14:30:00,
2013-11-30 09:35:00,22.7,12.0,30.81,NE,35,0.0,4.0,63,0.00,,---,0.00,VWS V14.01,2013-11-30 14:35:00,
2013-11-30 09:40:00,23.0,12.3,30.80,North,359,3.0,3.0,63,0.00,,---,0.00,VWS V14.01,2013-11-30 14:40:00,
2013-11-30 09:45:00,23.4,12.7,30.80,North,2,1.0,4.0,63,0.00,,---,0.00,VWS V14.01,2013-11-30 14:45:00,
2013-11-30 09:50:00,23.6,12.5,30.80,NNE,25,0.0,5.0,62,0.00,,---,0.00,VWS V14.01,2013-11-30 14:50:00,
2013-11-30 09:55:00,24.0,12.9,30.79,ENE,64,0.0,3.0,62,0.00,,---,0.00,VWS V14.01,2013-11-30 14:55:00,
2013-11-30 10:00:00,24.3,12.8,30.79,East,90,0.0,4.0,61,0.00,,---,0.00,VWS V14.01,2013-11-30 15:00:00,
2013-11-30 10:05:00,24.8,13.3,30.79,North,2,2.0,3.0,61,0.00,,---,0.00,VWS V14.01,2013-11-30 15:05:00,
2013-11-30 10:10:00,24.9,13.0,30.78,North,352,3.0,5.0,60,0.00,,---,0.00,VWS V14.01,2013-11-30 15:10:00,
2013-11-30 10:15:00,25.1,13.2,30.78,North,358,0.0,4.0,60,0.00,,---,0.00,VWS V14.01,2013-11-30 15:15:00,
2013-11-30 10:20:00,25.5,13.6,30.78,East,96,0.0,5.0,60,0.00,,---,0.00,VWS V14.01,2013-11-30 15:20:00,
2013-11-30 10:25:00,25.9,13.9,30.77,NNE,17,1.0,4.0,60,0.00,,---,0.00,VWS V14.01,2013-11-30 15:25:00,
2013-11-30 10:30:00,26.2,14.2,30.77,NE,35,0.0,4.0,60,0.00,,---,0.00,VWS V14.01,2013-11-30 15:30:00,
2013-11-30 10:35:00,26.7,15.1,30.77,NNW,328,0.0,2.0,61,0.00,,---,0.00,VWS V14.01,2013-11-30 15:35:00,
2013-11-30 10:40:00,27.2,14.8,30.77,SE,125,0.0,3.0,59,0.00,,---,0.00,VWS V14.01,2013-11-30 15:40:00,
2013-11-30 10:45:00,27.5,15.8,30.77,North,358,0.0,5.0,61,0.00,,---,0.00,VWS V14.01,2013-11-30 15:45:00,
2013-11-30 10:50:00,27.8,15.4,30.77,NE,35,2.0,3.0,59,0.00,,---,0.00,VWS V14.01,2013-11-30 15:50:00,
2013-11-30 10:55:00,27.9,15.8,30.77,North,2,0.0,5.0,60,0.00,,---,0.00,VWS V14.01,2013-11-30 15:55:00,
2013-11-30 11:00:00,28.1,16.8,30.76,North,6,2.0,4.0,62,0.00,,---,0.00,VWS V14.01,2013-11-30 16:00:00,
2013-11-30 11:05:00,28.4,17.1,30.76,NNE,16,2.0,3.0,62,0.00,,---,0.00,VWS V14.01,2013-11-30 16:05:00,
2013-11-30 11:10:00,28.8,17.1,30.76,NE,35,0.0,3.0,61,0.00,,---,0.00,VWS V14.01,2013-11-30 16:10:00,
2013-11-30 11:15:00,28.8,16.7,30.76,WNW,285,1.0,4.0,60,0.00,,---,0.00,VWS V14.01,2013-11-30 16:15:00,
2013-11-30 11:20:00,28.7,17.0,30.75,East,98,0.0,2.0,61,0.00,,---,0.00,VWS V14.01,2013-11-30 16:20:00,
2013-11-30 11:30:00,29.2,16.7,30.75,ESE,121,0.0,4.0,59,0.00,,---,0.00,VWS V14.01,2013-11-30 16:30:00,
2013-11-30 11:35:00,29.2,17.1,30.74,NE,35,0.0,3.0,60,0.00,,---,0.00,VWS V14.01,2013-11-30 16:35:00,
2013-11-30 11:40:00,29.5,17.3,30.74,NNE,19,1.0,2.0,60,0.00,,---,0.00,VWS V14.01,2013-11-30 16:40:00,
2013-11-30 11:45:00,29.7,17.1,30.74,ENE,78,0.0,2.0,59,0.00,,---,0.00,VWS V14.01,2013-11-30 16:45:00,
2013-11-30 11:50:00,29.8,17.2,30.73,SE,133,1.0,3.0,59,0.00,,---,0.00,VWS V14.01,2013-11-30 16:50:00,
2013-11-30 11:55:00,29.9,16.9,30.73,SE,133,0.0,2.0,58,0.00,,---,0.00,VWS V14.01,2013-11-30 16:55:00,
2013-11-30 12:00:00,30.1,17.5,30.73,WSW,242,2.0,4.0,59,0.00,,---,0.00,VWS V14.01,2013-11-30 17:00:00,
2013-11-30 12:05:00,30.3,17.3,30.73,WSW,242,1.0,3.0,58,0.00,,---,0.00,VWS V14.01,2013-11-30 17:05:00,
2013-11-30 12:10:00,30.7,18.1,30.73,WSW,243,2.0,3.0,59,0.00,,---,0.00,VWS V14.01,2013-11-30 17:10:00,
2013-11-30 12:15:00,30.8,17.8,30.72,WSW,248,0.0,3.0,58,0.00,,---,0.00,VWS V14.01,2013-11-30 17:15:00,
2013-11-30 12:20:00,31.3,18.2,30.72,SW,235,1.0,3.0,58,0.00,,---,0.00,VWS V14.01,2013-11-30 17:20:00,
2013-11-30 12:25:00,31.3,17.9,30.72,West,277,0.0,4.0,57,0.00,,---,0.00,VWS V14.01,2013-11-30 17:25:00,
2013-11-30 12:30:00,31.1,18.5,30.71,SE,129,2.0,3.0,59,0.00,,---,0.00,VWS V14.01,2013-11-30 17:30:00,
2013-11-30 12:35:00,31.4,18.4,30.71,SE,128,0.0,3.0,58,0.00,,---,0.00,VWS V14.01,2013-11-30 17:35:00,
2013-11-30 12:40:00,31.6,18.5,30.71,ESE,115,0.0,3.0,58,0.00,,---,0.00,VWS V14.01,2013-11-30 17:40:00,
2013-11-30 12:45:00,31.9,18.8,30.71,SE,132,0.0,2.0,58,0.00,,---,0.00,VWS V14.01,2013-11-30 17:45:00,
2013-11-30 12:50:00,32.3,19.2,30.70,SE,132,0.0,2.0,58,0.00,,---,0.00,VWS V14.01,2013-11-30 17:50:00,
2013-11-30 13:00:00,32.6,19.5,30.70,ENE,64,0.0,2.0,58,0.00,,---,0.00,VWS V14.01,2013-11-30 18:00:00,
2013-11-30 13:05:00,33.0,19.4,30.70,East,82,3.0,3.0,57,0.00,,---,0.00,VWS V14.01,2013-11-30 18:05:00,
2013-11-30 13:10:00,33.0,19.4,30.70,WSW,254,3.0,5.0,57,0.00,,---,0.00,VWS V14.01,2013-11-30 18:10:00,
2013-11-30 13:15:00,32.6,18.7,30.69,SSW,193,0.0,5.0,56,0.00,,---,0.00,VWS V14.01,2013-11-30 18:15:00,
2013-11-30 13:20:00,32.7,19.2,30.69,ENE,67,2.0,4.0,57,0.00,,---,0.00,VWS V14.01,2013-11-30 18:20:00,
2013-11-30 13:25:00,32.9,19.8,30.68,ESE,113,2.0,4.0,58,0.00,,---,0.00,VWS V14.01,2013-11-30 18:25:00,
2013-11-30 13:30:00,33.0,19.4,30.68,SE,144,0.0,4.0,57,0.00,,---,0.00,VWS V14.01,2013-11-30 18:30:00,
2013-11-30 13:35:00,33.0,19.4,30.68,SE,146,1.0,5.0,57,0.00,,---,0.00,VWS V14.01,2013-11-30 18:35:00,
2013-11-30 13:40:00,32.9,18.9,30.68,SSW,202,2.0,3.0,56,0.00,,---,0.00,VWS V14.01,2013-11-30 18:40:00,
2013-11-30 13:45:00,32.7,19.2,30.67,SSE,165,2.0,5.0,57,0.00,,---,0.00,VWS V14.01,2013-11-30 18:45:00,
2013-11-30 13:50:00,32.8,19.3,30.67,SSW,202,2.0,3.0,57,0.00,,---,0.00,VWS V14.01,2013-11-30 18:50:00,
2013-11-30 13:55:00,32.6,19.1,30.67,SSW,205,0.0,2.0,57,0.00,,---,0.00,VWS V14.01,2013-11-30 18:55:00,
2013-11-30 14:00:00,32.4,18.5,30.67,SSW,213,1.0,4.0,56,0.00,,---,0.00,VWS V14.01,2013-11-30 19:00:00,
2013-11-30 14:05:00,32.2,18.7,30.67,SSW,213,0.0,2.0,57,0.00,,---,0.00,VWS V14.01,2013-11-30 19:05:00,
2013-11-30 14:10:00,31.9,18.8,30.67,SSW,213,0.0,1.0,58,0.00,,---,0.00,VWS V14.01,2013-11-30 19:10:00,
2013-11-30 14:15:00,31.8,19.1,30.66,South,185,2.0,2.0,59,0.00,,---,0.00,VWS V14.01,2013-11-30 19:15:00,
2013-11-30 14:20:00,31.7,19.0,30.66,South,185,0.0,2.0,59,0.00,,---,0.00,VWS V14.01,2013-11-30 19:20:00,
2013-11-30 14:25:00,31.6,19.3,30.66,SE,127,1.0,3.0,60,0.00,,---,0.00,VWS V14.01,2013-11-30 19:25:00,
2013-11-30 14:30:00,31.6,19.3,30.66,SE,127,0.0,1.0,60,0.00,,---,0.00,VWS V14.01,2013-11-30 19:30:00,
2013-11-30 14:35:00,31.5,18.8,30.66,SE,127,1.0,2.0,59,0.00,,---,0.00,VWS V14.01,2013-11-30 19:35:00,
2013-11-30 14:40:00,31.4,18.4,30.66,SW,221,1.0,3.0,58,0.00,,---,0.00,VWS V14.01,2013-11-30 19:40:00,
2013-11-30 14:45:00,31.3,18.6,30.66,SW,221,0.0,1.0,59,0.00,,---,0.00,VWS V14.01,2013-11-30 19:45:00,
2013-11-30 14:50:00,31.2,18.5,30.65,SSW,205,0.0,3.0,59,0.00,,---,0.00,VWS V14.01,2013-11-30 19:50:00,
2013-11-30 14:55:00,31.1,18.5,30.65,SSW,205,0.0,0.0,59,0.00,,---,0.00,VWS V14.01,2013-11-30 19:55:00,
2013-11-30 15:00:00,31.0,18.4,30.65,SSW,205,1.0,1.0,59,0.00,,---,0.00,VWS V14.01,2013-11-30 20:00:00,
2013-11-30 15:05:00,31.0,18.8,30.65,South,187,0.0,3.0,60,0.00,,---,0.00,VWS V14.01,2013-11-30 20:05:00,
2013-11-30 15:10:00,30.9,18.7,30.64,South,187,0.0,1.0,60,0.00,,---,0.00,VWS V14.01,2013-11-30 20:10:00,
2013-11-30 15:15:00,30.8,18.6,30.64,South,187,0.0,1.0,60,0.00,,---,0.00,VWS V14.01,2013-11-30 20:15:00,
2013-11-30 15:20:00,30.7,18.5,30.64,South,187,0.0,1.0,60,0.00,,---,0.00,VWS V14.01,2013-11-30 20:20:00,
2013-11-30 15:30:00,30.6,18.4,30.65,South,187,0.0,1.0,60,0.00,,---,0.00,VWS V14.01,2013-11-30 20:30:00,
2013-11-30 15:35:00,30.4,18.6,30.65,South,187,0.0,0.0,61,0.00,,---,0.00,VWS V14.01,2013-11-30 20:35:00,
2013-11-30 15:40:00,30.2,18.8,30.64,South,187,0.0,1.0,62,0.00,,---,0.00,VWS V14.01,2013-11-30 20:40:00,
2013-11-30 15:45:00,30.0,19.0,30.64,South,187,0.0,0.0,63,0.00,,---,0.00,VWS V14.01,2013-11-30 20:45:00,
2013-11-30 15:50:00,29.8,18.8,30.64,South,187,0.0,1.0,63,0.00,,---,0.00,VWS V14.01,2013-11-30 20:50:00,
2013-11-30 15:55:00,29.5,18.5,30.63,South,187,0.0,0.0,63,0.00,,---,0.00,VWS V14.01,2013-11-30 20:55:00,
2013-11-30 16:00:00,29.2,18.9,30.63,South,187,0.0,0.0,65,0.00,,---,0.00,VWS V14.01,2013-11-30 21:00:00,
2013-11-30 16:05:00,28.8,18.5,30.63,South,187,0.0,0.0,65,0.00,,---,0.00,VWS V14.01,2013-11-30 21:05:00,
2013-11-30 16:15:00,28.3,18.8,30.63,South,187,0.0,0.0,67,0.00,,---,0.00,VWS V14.01,2013-11-30 21:15:00,
2013-11-30 16:20:00,28.0,18.8,30.63,South,187,0.0,0.0,68,0.00,,---,0.00,VWS V14.01,2013-11-30 21:20:00,
2013-11-30 16:25:00,27.8,18.6,30.63,South,187,0.0,0.0,68,0.00,,---,0.00,VWS V14.01,2013-11-30 21:25:00,
2013-11-30 16:30:00,27.5,18.7,30.63,South,187,0.0,0.0,69,0.00,,---,0.00,VWS V14.01,2013-11-30 21:30:00,
2013-11-30 16:35:00,27.3,18.8,30.63,South,187,0.0,0.0,70,0.00,,---,0.00,VWS V14.01,2013-11-30 21:35:00,
2013-11-30 16:40:00,27.2,18.7,30.63,South,187,0.0,0.0,70,0.00,,---,0.00,VWS V14.01,2013-11-30 21:40:00,
2013-11-30 16:45:00,26.9,18.4,30.63,South,187,0.0,0.0,70,0.00,,---,0.00,VWS V14.01,2013-11-30 21:45:00,
2013-11-30 16:50:00,26.7,18.6,30.63,South,187,0.0,0.0,71,0.00,,---,0.00,VWS V14.01,2013-11-30 21:50:00,
2013-11-30 16:55:00,26.4,18.6,30.63,South,187,0.0,0.0,72,0.00,,---,0.00,VWS V14.01,2013-11-30 21:55:00,
2013-11-30 17:00:00,26.2,18.4,30.63,South,187,0.0,0.0,72,0.00,,---,0.00,VWS V14.01,2013-11-30 22:00:00,
2013-11-30 17:05:00,26.1,18.6,30.62,South,187,0.0,0.0,73,0.00,,---,0.00,VWS V14.01,2013-11-30 22:05:00,
2013-11-30 17:10:00,25.9,18.5,30.62,South,187,0.0,0.0,73,0.00,,---,0.00,VWS V14.01,2013-11-30 22:10:00,
2013-11-30 17:15:00,25.7,18.9,30.62,South,187,0.0,0.0,75,0.00,,---,0.00,VWS V14.01,2013-11-30 22:15:00,
2013-11-30 17:20:00,25.5,18.7,30.62,South,187,0.0,0.0,75,0.00,,---,0.00,VWS V14.01,2013-11-30 22:20:00,
2013-11-30 17:25:00,25.4,18.6,30.62,South,187,0.0,0.0,75,0.00,,---,0.00,VWS V14.01,2013-11-30 22:25:00,
2013-11-30 17:30:00,25.2,18.4,30.61,South,187,0.0,0.0,75,0.00,,---,0.00,VWS V14.01,2013-11-30 22:30:00,
2013-11-30 17:35:00,25.1,18.6,30.61,South,187,0.0,0.0,76,0.00,,---,0.00,VWS V14.01,2013-11-30 22:35:00,
2013-11-30 17:45:00,24.9,18.4,30.61,South,187,0.0,0.0,76,0.00,,---,0.00,VWS V14.01,2013-11-30 22:45:00,
2013-11-30 17:50:00,24.8,18.6,30.61,South,187,0.0,0.0,77,0.00,,---,0.00,VWS V14.01,2013-11-30 22:50:00,
2013-11-30 17:55:00,24.8,18.6,30.61,South,187,0.0,0.0,77,0.00,,---,0.00,VWS V14.01,2013-11-30 22:55:00,
2013-11-30 18:00:00,24.8,18.9,30.61,South,187,0.0,0.0,78,0.00,,---,0.00,VWS V14.01,2013-11-30 23:00:00,
2013-11-30 18:05:00,24.8,18.9,30.61,South,187,0.0,0.0,78,0.00,,---,0.00,VWS V14.01,2013-11-30 23:05:00,
2013-11-30 18:10:00,24.8,18.9,30.61,South,187,0.0,0.0,78,0.00,,---,0.00,VWS V14.01,2013-11-30 23:10:00,
2013-11-30 18:15:00,24.9,19.0,30.60,South,187,0.0,0.0,78,0.00,,---,0.00,VWS V14.01,2013-11-30 23:15:00,
2013-11-30 18:20:00,24.9,19.3,30.60,South,187,0.0,0.0,79,0.00,,---,0.00,VWS V14.01,2013-11-30 23:20:00,
2013-11-30 18:25:00,25.0,19.4,30.60,South,187,0.0,0.0,79,0.00,,---,0.00,VWS V14.01,2013-11-30 23:25:00,
2013-11-30 18:30:00,25.0,19.4,30.59,South,187,0.0,0.0,79,0.00,,---,0.00,VWS V14.01,2013-11-30 23:30:00,
2013-11-30 18:35:00,25.0,19.4,30.59,South,187,0.0,0.0,79,0.00,,---,0.00,VWS V14.01,2013-11-30 23:35:00,
2013-11-30 18:40:00,25.0,19.4,30.59,South,187,0.0,0.0,79,0.00,,---,0.00,VWS V14.01,2013-11-30 23:40:00,
2013-11-30 18:50:00,25.0,19.7,30.59,South,187,0.0,0.0,80,0.00,,---,0.00,VWS V14.01,2013-11-30 23:50:00,
2013-11-30 18:55:00,25.1,19.8,30.59,South,187,0.0,0.0,80,0.00,,---,0.00,VWS V14.01,2013-11-30 23:55:00,
2013-11-30 19:00:00,25.1,19.8,30.59,South,187,0.0,0.0,80,0.00,,---,0.00,VWS V14.01,2013-12-01 00:00:00,
2013-11-30 19:10:00,25.3,20.3,30.58,South,187,0.0,0.0,81,0.00,,---,0.00,VWS V14.01,2013-12-01 00:10:00,
2013-11-30 19:15:00,25.4,20.4,30.58,South,187,0.0,0.0,81,0.00,,---,0.00,VWS V14.01,2013-12-01 00:15:00,
2013-11-30 19:25:00,25.5,20.5,30.58,South,187,0.0,0.0,81,0.00,,---,0.00,VWS V14.01,2013-12-01 00:25:00,
2013-11-30 19:30:00,25.6,20.6,30.58,South,187,0.0,0.0,81,0.00,,---,0.00,VWS V14.01,2013-12-01 00:30:00,
2013-11-30 19:35:00,25.5,20.5,30.58,South,187,0.0,0.0,81,0.00,,---,0.00,VWS V14.01,2013-12-01 00:35:00,
2013-11-30 19:40:00,25.6,20.6,30.58,South,187,0.0,0.0,81,0.00,,---,0.00,VWS V14.01,2013-12-01 00:40:00,
2013-11-30 19:45:00,25.6,20.6,30.57,South,187,0.0,0.0,81,0.00,,---,0.00,VWS V14.01,2013-12-01 00:45:00,
2013-11-30 19:50:00,25.6,20.6,30.57,South,187,0.0,0.0,81,0.00,,---,0.00,VWS V14.01,2013-12-01 00:50:00,
2013-11-30 19:55:00,25.6,20.6,30.57,South,187,0.0,0.0,81,0.00,,---,0.00,VWS V14.01,2013-12-01 00:55:00,
2013-11-30 20:00:00,25.6,20.6,30.57,South,187,0.0,0.0,81,0.00,,---,0.00,VWS V14.01,2013-12-01 01:00:00,
2013-11-30 20:05:00,25.7,20.7,30.56,South,187,0.0,0.0,81,0.00,,---,0.00,VWS V14.01,2013-12-01 01:05:00,
2013-11-30 20:10:00,25.7,20.7,30.56,South,187,0.0,0.0,81,0.00,,---,0.00,VWS V14.01,2013-12-01 01:10:00,
2013-11-30 20:15:00,25.8,20.8,30.56,South,187,0.0,0.0,81,0.00,,---,0.00,VWS V14.01,2013-12-01 01:15:00,
2013-11-30 20:20:00,25.8,20.8,30.56,South,187,0.0,0.0,81,0.00,,---,0.00,VWS V14.01,2013-12-01 01:20:00,
2013-11-30 20:25:00,25.9,20.9,30.56,South,187,0.0,0.0,81,0.00,,---,0.00,VWS V14.01,2013-12-01 01:25:00,
2013-11-30 20:30:00,25.9,20.9,30.55,South,187,0.0,0.0,81,0.00,,---,0.00,VWS V14.01,2013-12-01 01:30:00,
2013-11-30 20:35:00,26.0,21.0,30.55,South,187,0.0,0.0,81,0.00,,---,0.00,VWS V14.01,2013-12-01 01:35:00,
2013-11-30 20:40:00,26.0,21.0,30.55,South,187,0.0,0.0,81,0.00,,---,0.00,VWS V14.01,2013-12-01 01:40:00,
2013-11-30 20:45:00,26.1,21.1,30.55,South,187,0.0,0.0,81,0.00,,---,0.00,VWS V14.01,2013-12-01 01:45:00,
2013-11-30 20:50:00,26.2,21.2,30.55,South,187,0.0,0.0,81,0.00,,---,0.00,VWS V14.01,2013-12-01 01:50:00,
2013-11-30 20:55:00,26.4,21.4,30.55,South,187,0.0,0.0,81,0.00,,---,0.00,VWS V14.01,2013-12-01 01:55:00,
2013-11-30 21:00:00,26.5,21.5,30.54,South,187,0.0,0.0,81,0.00,,---,0.00,VWS V14.01,2013-12-01 02:00:00,
2013-11-30 21:05:00,26.5,21.5,30.54,South,187,0.0,0.0,81,0.00,,---,0.00,VWS V14.01,2013-12-01 02:05:00,
2013-11-30 21:10:00,26.6,21.6,30.54,South,187,0.0,0.0,81,0.00,,---,0.00,VWS V14.01,2013-12-01 02:10:00,
2013-11-30 21:15:00,26.7,21.7,30.54,South,187,0.0,0.0,81,0.00,,---,0.00,VWS V14.01,2013-12-01 02:15:00,
2013-11-30 21:20:00,26.8,21.8,30.54,South,187,0.0,0.0,81,0.00,,---,0.00,VWS V14.01,2013-12-01 02:20:00,
2013-11-30 21:25:00,26.9,21.6,30.54,South,187,0.0,0.0,80,0.00,,---,0.00,VWS V14.01,2013-12-01 02:25:00,
2013-11-30 21:30:00,26.9,21.3,30.54,South,187,0.0,0.0,79,0.00,,---,0.00,VWS V14.01,2013-12-01 02:30:00,
2013-11-30 21:35:00,27.0,21.7,30.54,South,187,0.0,0.0,80,0.00,,---,0.00,VWS V14.01,2013-12-01 02:35:00,
2013-11-30 21:40:00,27.1,21.8,30.53,South,187,0.0,0.0,80,0.00,,---,0.00,VWS V14.01,2013-12-01 02:40:00,
2013-11-30 21:45:00,27.2,21.9,30.53,South,187,0.0,0.0,80,0.00,,---,0.00,VWS V14.01,2013-12-01 02:45:00,
2013-11-30 21:50:00,27.3,21.7,30.53,South,187,0.0,0.0,79,0.00,,---,0.00,VWS V14.01,2013-12-01 02:50:00,
2013-11-30 21:55:00,27.4,21.8,30.52,South,187,0.0,0.0,79,0.00,,---,0.00,VWS V14.01,2013-12-01 02:55:00,
2013-11-30 22:00:00,27.4,21.5,30.52,South,187,0.0,0.0,78,0.00,,---,0.00,VWS V14.01,2013-12-01 03:00:00,
2013-11-30 22:05:00,27.5,21.5,30.52,South,187,0.0,0.0,78,0.00,,---,0.00,VWS V14.01,2013-12-01 03:05:00,
2013-11-30 22:10:00,27.5,21.5,30.51,South,187,0.0,0.0,78,0.00,,---,0.00,VWS V14.01,2013-12-01 03:10:00,
2013-11-30 22:15:00,27.6,21.6,30.51,South,187,0.0,0.0,78,0.00,,---,0.00,VWS V14.01,2013-12-01 03:15:00,
2013-11-30 22:20:00,27.6,21.6,30.51,South,187,0.0,0.0,78,0.00,,---,0.00,VWS V14.01,2013-12-01 03:20:00,
2013-11-30 22:30:00,27.9,21.6,30.51,South,187,0.0,0.0,77,0.00,,---,0.00,VWS V14.01,2013-12-01 03:30:00,
2013-11-30 22:35:00,28.0,22.0,30.51,South,187,0.0,0.0,78,0.00,,---,0.00,VWS V14.01,2013-12-01 03:35:00,
2013-11-30 22:40:00,28.0,21.7,30.50,South,187,0.0,0.0,77,0.00,,---,0.00,VWS V14.01,2013-12-01 03:40:00,
2013-11-30 22:45:00,28.0,22.0,30.50,South,187,0.0,0.0,78,0.00,,---,0.00,VWS V14.01,2013-12-01 03:45:00,
2013-11-30 22:50:00,28.0,22.0,30.50,South,187,0.0,0.0,78,0.00,,---,0.00,VWS V14.01,2013-12-01 03:50:00,
2013-11-30 22:55:00,28.1,22.1,30.49,South,187,0.0,0.0,78,0.00,,---,0.00,VWS V14.01,2013-12-01 03:55:00,
2013-11-30 23:00:00,28.4,22.4,30.49,South,187,0.0,2.0,78,0.00,,---,0.00,VWS V14.01,2013-12-01 04:00:00,
2013-11-30 23:05:00,28.7,22.7,30.49,South,187,0.0,0.0,78,0.00,,---,0.00,VWS V14.01,2013-12-01 04:05:00,
2013-11-30 23:10:00,28.9,22.6,30.48,South,187,0.0,0.0,77,0.00,,---,0.00,VWS V14.01,2013-12-01 04:10:00,
2013-11-30 23:15:00,29.0,22.7,30.48,South,187,0.0,0.0,77,0.00,,---,0.00,VWS V14.01,2013-12-01 04:15:00,
2013-11-30 23:20:00,29.2,22.9,30.47,South,187,0.0,0.0,77,0.00,,---,0.00,VWS V14.01,2013-12-01 04:20:00,
2013-11-30 23:25:00,29.4,23.1,30.47,South,185,1.0,3.0,77,0.00,,---,0.00,VWS V14.01,2013-12-01 04:25:00,
2013-11-30 23:30:00,29.8,23.2,30.47,SSW,194,0.0,3.0,76,0.00,,---,0.00,VWS V14.01,2013-12-01 04:30:00,
2013-11-30 23:40:00,30.4,23.8,30.46,SSW,194,0.0,1.0,76,0.00,,---,0.00,VWS V14.01,2013-12-01 04:40:00,
2013-11-30 23:45:00,30.6,24.0,30.46,SE,128,0.0,2.0,76,0.00,,---,0.00,VWS V14.01,2013-12-01 04:45:00,
2013-11-30 23:50:00,30.8,24.1,30.45,SE,128,0.0,1.0,76,0.00,,---,0.00,VWS V14.01,2013-12-01 04:50:00,
2013-11-30 23:55:00,31.0,24.3,30.44,SE,128,0.0,2.0,76,0.00,,---,0.00,VWS V14.01,2013-12-01 04:55:00,